Location: La Silve
(44.2414°N, 5.8889°E)
Time: 08:44:46
(UTC+00:00)

IRS-1C Rocket - Pass Details

Date: 01 December 2020
Orbit: 800 x 806 km, 99.0° (Epoch: 25 January)

Event Time Altitude Azimuth Distance (km) Brightness Sun altitude
Rises 17:36:48 0° 157° (SSE) 3,308 7.2 -17.0°
Reaches altitude 10° 17:39:08 10° 155° (SSE) 2,381 6.4 -17.4°
Maximum altitude 17:44:22 72° 73° (ENE) 852 4.0 -18.3°
Drops below altitude 10° 17:49:39 10° 350° (N) 2,397 6.5 -19.3°
Sets 17:51:59 0° 348° (NNW) 3,331 7.3 -19.7°
